Location: Four Corners
(38.2757°N, 122.4608°W)
Time: 13:28:53
(UTC+00:00)

COSMOS 2428 - Pass Details

Date: 08 December 2019
Orbit: 844 x 858 km, 70.9° (Epoch: 22 January)

Event Time Altitude Azimuth Distance (km) Brightness Sun altitude
Rises 01:41:58 0° 218° (SW) 3,388 7.0 -10.2°
Reaches altitude 10° 01:44:30 10° 225° (SW) 2,457 6.3 -10.7°
Maximum altitude 01:49:54 46° 297° (WNW) 1,131 3.7 -11.7°
Drops below altitude 10° 01:55:21 10° 11° (N) 2,478 4.9 -12.7°
Enters shadow 01:57:54 - 17° (NNE) 3,409 5.5 -13.2°
